TURKU/ABO current weather conditions

sailwx.info

Wind from 310 at 6 knots

Air temperature 2.0° C
Visibility: greater than 5.4 NM
Dewpoint -3.0° C
Present weather: Light snow.

Last reported at 2019-Mar-25 08:50 UTC.
Time now 2019-Mar-25 09:41 UTC

Location: N 60°31' E 022°16'.
View on Google Maps.

See reports from other nearby stations

  
Tides and Currents Weather Stations Pressure Air Temp Water Temp Dewpoint Dewpoint Depression Visibility Wind Speed Wind Dir Waves Ship Positions
date/time (UTC)wind fromknots sea level pressurealtimeterstation pressurevisibilityair tempwater tempwave heightnotes
2019-Mar-25 08:50 310 6 5.4 2.0 Light snow.
2019-Mar-25 08:20 330 6 5.4 2.0 Light snow.
2019-Mar-25 07:50 310 4 5.4 1.0
2019-Mar-25 07:20 320 5 5.4 1.0 Light snow.
2019-Mar-25 06:50 330 6 5.4 1.0
2019-Mar-25 06:20 320 4 5.4-0.0
2019-Mar-25 05:50 300 4 5.4-1.0
2019-Mar-25 05:20 300 4 5.4-1.0
2019-Mar-25 04:50 260 4 5.4-2.0
2019-Mar-25 04:20 5.4-3.0
2019-Mar-25 03:50 280 4 5.4-3.0
2019-Mar-25 03:20 5.4-4.0
2019-Mar-25 02:50 5.4-4.0
2019-Mar-25 02:20 5.4-3.0
2019-Mar-25 01:50 270 4 5.4-2.0
2019-Mar-25 01:20 260 5 5.4-2.0
2019-Mar-25 00:50 250 6 5.4-3.0
2019-Mar-25 00:20 270 4 5.4-2.0
2019-Mar-24 23:50 240 1 5.4-2.0
2019-Mar-24 23:20 240 6 5.4-1.0
2019-Mar-24 22:50 250 4 5.4-1.0
2019-Mar-24 22:20 240 5 5.4-0.0
2019-Mar-24 21:50 260 5 5.4-0.0
2019-Mar-24 21:20 250 6 5.4-0.0
2019-Mar-24 20:50 240 5 5.4-0.0
2019-Mar-24 20:20 260 5 5.4 1.0
2019-Mar-24 19:50 270 4 5.4 1.0
2019-Mar-24 19:20 270 5 5.4 2.0
2019-Mar-24 18:50 270 6 5.4 2.0
2019-Mar-24 18:20 260 7 5.4 3.0
2019-Mar-24 17:50 250 8 5.4 3.0
2019-Mar-24 17:20 250 9 5.4 4.0
2019-Mar-24 16:50 250 8 5.4 4.0
2019-Mar-24 16:20 250 11 5.4 5.0
2019-Mar-24 15:50 250 12 5.4 6.0
2019-Mar-24 15:20 250 13 5.4 7.0
2019-Mar-24 14:50 260 12 5.4 7.0
2019-Mar-24 14:20 260 12 5.4 7.0
2019-Mar-24 13:50 260 13 5.4 7.0
2019-Mar-24 13:20 260 17 5.4 6.0
2019-Mar-24 12:50 270 15 5.4 7.0
2019-Mar-24 12:20 280 17 5.4 7.0
2019-Mar-24 11:50 290 13 5.4 6.0
2019-Mar-24 11:20 290 15 5.4 6.0
2019-Mar-24 10:50 290 15 5.4 5.0
2019-Mar-24 10:20 290 14 gusting 26 5.4 5.0
2019-Mar-24 09:50 290 14 5.4 5.0
2019-Mar-24 09:20 280 19 gusting 29 5.4 5.0
2019-Mar-24 08:50 280 19 gusting 31 5.4 4.0
2019-Mar-24 08:20 290 17 5.4 5.0
2019-Mar-24 07:50 300 15 gusting 26 5.4 4.0
2019-Mar-24 07:20 290 13 5.4 4.0
2019-Mar-24 06:50 290 14 5.4 4.0
2019-Mar-24 06:20 290 13 5.4 3.0
2019-Mar-24 05:50 290 13 gusting 24 5.4 3.0
2019-Mar-24 05:20 300 11 5.4 3.0
2019-Mar-24 04:50 300 12 gusting 24 5.4 3.0
2019-Mar-24 04:20 290 14 5.4 3.0
2019-Mar-24 03:50 290 11 5.4 3.0
2019-Mar-24 03:20 300 11 5.4 3.0
2019-Mar-24 02:50 290 9 5.4 3.0
2019-Mar-24 02:20 280 11 5.4 3.0
2019-Mar-24 01:50 290 11 5.4 3.0
2019-Mar-24 01:20 280 9 5.4 3.0
2019-Mar-24 00:50 280 13 5.4 4.0
2019-Mar-24 00:20 280 13 5.4 4.0
2019-Mar-23 23:50 280 13 5.4 4.0
2019-Mar-23 23:20 270 11 5.4 4.0
2019-Mar-23 22:50 270 13 5.4 4.0
2019-Mar-23 22:20 250 12 5.4 4.0
2019-Mar-23 21:50 260 9 5.4 4.0
2019-Mar-23 21:20 260 8 5.4 4.0
2019-Mar-23 20:50 260 9 5.4 3.0
2019-Mar-23 20:20 260 7 5.4 3.0
2019-Mar-23 19:50 260 6 5.4 2.0
2019-Mar-23 19:20 240 6 5.4 2.0
2019-Mar-23 18:50 230 6 5.4 3.0
2019-Mar-23 18:20 230 6 5.4 3.0
2019-Mar-23 17:50 230 6 5.4 3.0
2019-Mar-23 17:20 220 5 5.4 4.0
2019-Mar-23 16:50 220 6 5.4 5.0
2019-Mar-23 16:20 220 7 5.4 6.0
2019-Mar-23 15:50 230 8 5.4 6.0
2019-Mar-23 15:20 240 9 5.4 7.0
2019-Mar-23 14:50 230 9 5.4 7.0
2019-Mar-23 14:20 230 11 5.4 7.0
2019-Mar-23 13:50 240 15 5.4 7.0
2019-Mar-23 13:20 230 12 5.4 7.0
2019-Mar-23 12:50 230 13 5.4 6.0
2019-Mar-23 12:20 230 14 4.9 5.0
2019-Mar-23 11:50 230 13 4.3 5.0
2019-Mar-23 11:20 230 13 3.8 5.0
2019-Mar-23 10:50 230 11 3.8 4.0
2019-Mar-23 10:20 230 13 4.9 4.0
2019-Mar-23 09:50 230 13 5.4 4.0 Light rain.
2019-Mar-23 09:20 220 13 3.8 4.0 Rain.